RH
22 23 23 22 22 22 21 21 21 20 20 19 18 17 18 18 18 17 17 16 16 17 18 19 19 19 19 19 19 19 20 21 23 25 27 29 32 35 36 37 36 35 34 33 33 33 32 31 29 27 25 24
26 26 26 25 25 24 23 23 22 22 21 19 18 16 16 16 17 17 17 17 16 16 16 17 18 18 18 18 18 18 18 18 20 22 25 28 31 33 36 37 37 37 37 36 35 33 32 30 28 26 25 24
29 29 29 28 27 26 25 25 23 22 21 19 17 15 15 15 16 16 17 17 17 16 15 15 16 16 17 17 17 17 17 17 19 21 23 27 30 33 35 36 36 36 35 35 32 30 29 26 25 24 24 24
32 32 32 31 30 28 26 25 23 21 19 16 15 14 14 15 16 16 16 17 17 17 16 16 15 15 16 16 16 16 16 16 19 22 25 28 31 33 35 36 34 33 31 30 29 27 26 24 23 23 23 22
34 35 35 33 31 28 26 24 21 19 17 15 15 15 15 16 17 17 16 16 17 17 17 16 15 15 15 15 16 16 16 18 22 25 28 31 33 35 36 35 32 30 28 27 26 26 25 24 23 22 22 21
37 37 36 33 30 27 24 22 20 19 18 17 16 17 17 18 18 18 17 16 17 17 17 16 15 15 15 16 16 17 19 21 25 29 32 33 35 37 38 35 31 30 28 27 26 26 25 24 23 22 21 20
38 38 36 31 28 25 23 20 20 20 19 19 20 20 20 20 20 20 19 17 17 17 16 16 15 15 15 17 18 20 22 25 29 32 34 35 37 38 37 34 31 30 28 27 25 24 23 22 21 21 20 20
40 40 36 29 27 25 23 21 22 22 21 22 23 22 22 22 23 22 21 19 18 17 17 16 16 16 16 18 21 24 26 29 33 35 36 36 36 36 35 34 32 31 29 26 24 23 22 20 19 19 19 18
41 40 33 28 28 27 25 25 25 24 24 26 26 25 25 25 26 26 25 23 21 20 19 18 18 18 19 22 25 29 32 34 36 36 36 36 35 34 34 35 34 32 29 26 24 23 21 20 19 18 18 18
41 36 31 31 31 29 28 27 26 26 27 29 29 27 27 27 29 30 29 27 25 24 23 22 22 22 24 26 30 33 37 38 38 38 36 35 34 34 35 36 35 33 29 27 25 23 21 21 21 20 19 18
39 35 34 35 33 31 30 28 27 28 30 31 30 29 29 29 30 32 32 30 29 28 26 26 25 25 28 30 33 36 39 41 41 40 37 35 34 34 36 37 36 33 30 29 26 24 23 22 22 21 21 19
37 36 37 37 34 33 33 31 30 30 31 31 31 30 29 28 29 30 30 30 31 28 27 29 28 27 29 32 35 38 41 44 44 44 41 38 35 35 36 38 37 34 32 30 27 25 24 23 23 22 21 20
36 37 38 37 35 36 36 34 33 32 30 30 30 28 27 26 26 27 26 28 29 26 27 30 29 29 31 33 36 39 42 44 46 48 47 45 41 37 37 38 38 35 33 31 28 26 25 24 23 23 22 21
37 37 36 35 38 39 37 35 34 31 28 28 26 25 24 24 24 25 25 27 29 26 28 31 31 33 35 36 38 41 42 42 44 48 50 51 50 45 40 39 39 38 35 34 31 28 27 26 25 24 23 22
37 37 34 36 39 40 38 36 32 28 26 25 24 24 23 23 24 25 26 28 30 28 29 31 34 37 38 41 43 43 43 41 41 44 47 50 53 53 48 43 42 41 38 36 33 30 29 27 26 25 24 22
36 36 36 37 35 35 36 34 28 24 24 23 24 24 24 25 27 27 27 28 29 28 28 29 32 35 38 44 46 45 45 43 42 43 44 45 49 53 54 50 46 43 41 39 36 33 30 29 27 26 24 23
34 34 34 32 28 29 31 29 25 23 25 25 25 26 28 31 33 33 33 32 32 30 29 29 30 32 37 44 46 44 45 46 47 49 47 45 45 49 54 55 51 47 45 42 39 35 32 30 28 26 25 23
31 32 33 29 25 25 26 26 25 24 27 27 27 30 34 37 39 40 40 40 40 39 37 36 36 36 41 47 48 45 47 51 55 58 58 53 48 47 53 58 56 53 50 46 41 37 34 31 29 27 25 24
35 38 38 31 25 24 24 26 25 25 28 29 30 35 38 41 43 44 45 47 48 49 48 47 46 47 51 54 54 52 53 57 63 69 70 64 56 51 54 61 61 58 55 49 43 38 34 31 29 27 25 23
45 48 45 35 28 25 26 26 25 27 30 31 34 39 42 44 47 50 54 58 60 60 58 57 55 57 62 63 62 62 62 64 71 80 84 80 71 60 57 62 65 64 60 51 44 38 34 31 29 27 25 22
51 53 49 41 32 28 27 26 27 30 32 34 38 44 48 51 55 59 63 66 68 67 64 63 62 63 65 67 67 67 68 71 78 89 95 93 87 74 63 64 69 70 66 56 47 39 34 31 29 27 24 21
55 55 53 47 37 31 28 28 30 32 34 36 41 47 53 59 63 66 68 69 70 68 65 63 61 62 64 66 67 67 69 74 82 92 98 98 98 88 70 65 71 76 72 63 51 41 35 31 29 26 23 21
56 57 56 48 37 32 30 29 31 32 33 34 37 41 46 54 61 67 70 71 72 70 66 62 58 57 58 61 64 66 68 72 80 91 98 98 99 97 80 67 70 78 78 70 58 45 36 32 30 27 23 19
60 60 56 47 36 31 30 30 30 30 31 30 31 35 38 42 47 55 62 66 71 73 73 69 62 57 55 55 57 59 62 69 79 88 96 99 99 99 89 74 71 76 79 76 66 50 38 33 31 27 21 17
52 54 54 46 35 31 29 30 30 31 31 29 29 33 37 38 40 46 53 61 71 77 81 78 71 65 59 55 55 56 57 64 77 86 94 98 99 99 94 84 76 73 75 78 73 56 41 34 31 27 20 15
38 42 46 40 33 30 31 32 32 31 31 30 31 34 40 43 45 48 52 60 69 79 89 87 81 76 70 64 59 57 57 59 67 79 90 97 99 100 97 91 84 77 74 77 78 65 48 35 30 27 21 14
38 39 38 33 32 32 33 34 34 33 32 34 38 43 48 50 51 52 54 59 66 76 88 88 85 85 82 77 68 61 60 59 62 72 85 94 99 100 99 95 89 84 81 79 80 75 57 40 30 27 21 14
39 37 34 33 34 35 35 35 35 34 35 40 48 50 50 51 52 53 53 56 60 67 77 79 80 85 88 87 79 67 63 63 62 69 81 93 99 100 100 98 91 89 89 84 83 82 66 46 33 28 21 14
36 34 33 35 35 35 35 34 34 34 35 40 46 48 49 50 51 52 52 53 54 59 70 78 83 88 89 89 80 64 59 63 66 70 79 91 97 98 100 100 95 91 92 91 89 87 73 51 37 31 26 19
37 35 35 35 36 37 36 35 35 34 33 34 37 42 47 50 52 53 53 51 49 53 63 74 81 83 81 81 75 62 56 60 68 72 78 89 97 98 100 101 97 93 94 97 96 92 81 60 42 34 31 26
40 39 40 39 38 39 38 37 36 36 35 33 32 36 43 50 54 53 51 50 50 53 59 66 73 76 73 73 74 71 62 59 69 78 82 91 98 99 100 101 99 97 98 100 99 96 88 69 49 38 35 31
Wind_Speed
10 10 11 12 13 13 13 14 15 15 16 17 18 18 18 18 18 19 19 19 19 19 19 19 19 19 19 19 20 20 20 20 21 21 22 22 23 23 24 24 26 27 27 27 28 28 27 27 27 27 27 28
11 11 11 12 13 14 14 15 16 17 18 18 19 19 19 19 19 19 20 20 21 20 20 20 20 20 20 20 20 21 21 22 22 23 23 23 23 24 24 26 27 28 28 29 29 29 28 28 28 28 28 28
12 11 12 13 13 14 15 16 17 19 19 20 20 20 20 20 19 19 20 21 21 21 21 21 21 21 21 21 21 21 22 22 23 23 23 23 24 24 25 27 28 28 29 29 29 29 28 28 29 29 29 29
12 12 12 13 14 15 16 17 18 19 19 20 20 20 20 20 20 19 20 20 21 21 22 22 22 22 22 22 22 22 22 23 23 24 24 24 24 25 25 27 28 28 28 28 28 28 27 28 28 29 29 29
13 12 12 13 14 15 16 17 18 19 20 20 20 20 20 20 19 19 19 20 20 21 21 22 22 22 23 23 23 23 23 23 23 24 24 24 25 24 25 27 27 27 27 27 27 26 27 27 27 28 28 28
13 13 13 13 14 16 16 17 18 19 19 20 20 20 20 20 19 19 19 19 20 20 21 21 22 23 23 23 23 23 23 24 24 24 24 25 25 25 26 27 26 26 26 26 26 26 26 26 26 26 26 26
13 13 13 13 14 15 16 17 18 19 20 20 20 20 20 20 19 19 19 19 20 20 21 21 22 23 23 23 23 24 24 24 25 25 25 26 26 26 26 26 26 26 26 26 26 26 26 25 25 25 25 25
13 13 13 13 14 15 16 17 18 18 19 20 20 20 20 20 20 20 20 20 20 20 21 21 22 23 23 23 23 24 25 25 26 26 26 26 27 27 26 26 26 26 26 26 26 26 26 25 25 24 24 24
14 14 13 13 14 15 16 17 17 18 19 19 20 20 21 21 21 21 21 20 20 21 21 22 23 24 24 24 24 24 25 26 26 27 27 27 27 27 26 26 26 26 26 26 26 25 25 25 24 24 24 24
15 14 13 13 15 16 17 17 18 18 19 19 20 21 21 22 22 22 22 21 21 22 22 23 24 24 24 25 25 25 25 26 27 27 27 27 27 27 26 26 26 27 27 26 26 25 24 24 24 24 23 23
16 14 14 15 16 17 17 18 18 18 19 19 20 21 21 22 22 22 23 23 22 23 23 24 24 25 25 26 26 26 26 26 27 27 27 27 27 27 27 26 27 27 27 27 26 25 24 24 24 23 23 23
16 15 16 16 18 18 18 19 19 18 19 20 20 21 21 22 22 23 23 24 24 24 24 24 25 26 26 27 27 27 27 27 28 28 28 28 28 28 27 27 28 28 28 28 27 26 25 24 24 23 23 24
17 16 16 17 19 19 19 20 19 19 19 19 20 20 20 21 22 23 24 24 24 25 25 25 26 27 27 28 28 29 29 28 28 28 28 28 28 28 28 28 29 29 29 29 28 27 26 25 24 24 24 24
18 17 17 18 19 19 21 21 20 20 20 19 19 20 20 21 22 23 24 24 25 26 26 26 27 27 27 28 29 29 30 30 29 29 29 29 29 29 29 29 29 30 30 29 29 28 28 27 25 25 24 25
19 18 17 18 19 21 22 22 22 21 20 20 20 19 20 21 22 22 24 24 25 26 27 27 27 27 28 28 28 30 30 30 30 29 30 30 30 29 29 29 30 30 31 30 30 29 29 28 27 26 25 25
20 18 18 18 20 22 22 22 22 22 21 21 20 20 21 21 21 22 23 24 25 25 26 27 28 28 28 27 28 30 30 31 30 30 30 30 30 30 29 29 30 30 31 31 30 29 29 28 28 27 26 26
19 18 18 19 21 22 22 23 23 22 22 21 21 21 21 21 22 22 23 23 24 25 26 27 27 28 27 27 29 31 31 31 31 31 31 30 30 30 30 29 30 30 30 30 30 30 29 28 28 27 27 27
18 18 19 20 21 22 23 24 24 24 23 23 22 22 22 22 22 23 23 23 24 25 26 27 28 28 28 28 30 31 32 31 31 31 31 31 31 30 29 29 29 30 30 30 30 29 29 28 28 28 28 28
19 20 20 21 22 23 24 25 25 25 24 24 24 24 24 24 24 24 25 25 25 26 27 28 29 29 29 30 31 33 33 32 32 32 32 32 31 30 29 29 30 30 30 30 29 29 29 28 28 28 28 28
22 22 23 23 23 24 25 27 27 27 26 25 26 25 25 25 26 26 27 27 28 29 30 30 31 31 32 33 34 36 35 34 33 33 33 33 32 30 30 30 30 30 30 30 30 30 29 28 28 28 29 29
25 26 26 25 25 26 27 28 29 28 27 27 27 27 27 27 27 28 29 30 30 32 33 33 34 34 35 36 37 38 39 37 36 35 35 34 33 31 30 30 30 30 31 31 31 30 29 29 29 29 29 29
27 28 29 28 29 29 30 31 31 31 31 31 30 30 30 29 29 29 30 31 32 33 35 35 36 36 38 39 40 41 42 40 39 37 36 36 34 32 31 30 30 31 31 32 32 31 30 29 29 30 30 30
28 29 30 32 33 33 33 32 33 34 35 35 36 35 34 33 32 32 32 33 34 35 36 36 37 37 38 40 42 43 44 43 41 39 38 38 36 35 33 31 30 32 32 33 32 32 31 30 30 30 31 30
26 29 32 34 34 32 30 30 31 33 35 37 40 41 40 38 38 37 36 36 36 36 37 38 38 38 39 41 42 44 45 45 43 41 40 40 39 37 34 31 31 32 33 34 33 32 32 31 31 31 31 31
27 31 33 34 32 30 29 30 31 32 34 36 39 42 44 43 42 41 40 38 37 37 38 40 40 40 40 40 42 43 44 45 44 42 41 41 41 39 35 33 32 33 34 35 34 34 33 32 32 32 32 33
29 31 32 31 30 30 31 32 32 33 34 36 38 41 43 43 41 40 40 39 39 38 39 41 41 40 40 40 41 42 43 45 45 44 43 43 42 40 37 35 34 34 34 36 36 35 35 34 33 33 33 34
28 29 30 30 31 31 31 31 31 32 33 35 38 40 41 41 40 40 40 40 41 41 41 43 43 42 41 41 41 42 44 45 45 45 44 43 43 42 40 37 36 36 35 36 36 37 37 35 34 33 34 34
29 30 30 31 32 32 32 31 31 30 31 33 35 35 35 36 37 39 41 42 43 44 45 46 46 45 44 43 42 43 45 45 45 45 45 44 43 44 42 38 37 38 37 36 36 37 38 36 35 34 34 34
32 33 33 34 35 36 37 37 36 35 33 33 33 33 33 34 37 39 41 43 44 45 46 47 47 47 48 46 44 44 46 46 46 46 45 45 44 45 44 41 40 41 40 37 36 37 38 37 38 36 34 34
35 36 37 38 38 38 39 40 41 41 39 38 37 37 38 38 38 39 40 42 43 45 46 47 47 48 50 48 46 46 47 47 48 47 46 46 45 46 46 44 43 42 41 39 38 37 38 39 40 38 36 35
36 37 38 39 40 39 40 41 42 41 41 40 40 39 40 39 37 37 38 39 41 42 43 45 47 48 50 48 46 46 47 49 49 48 47 46 46 47 48 48 46 43 42 40 39 38 39 40 40 40 39 37
Wind_Direction
256 263 269 274 280 284 288 292 295 297 298 299 298 296 295 292 289 285 282 278 275 272 271 271 270 271 272 273 274 275 276 277 277 278 279 279 281 282 282 281 278 277 278 278 278 279 280 280 279 278 278 280
254 260 267 274 280 285 289 293 295 296 297 298 297 296 294 291 288 285 281 279 276 274 271 270 270 270 270 271 272 274 275 276 277 278 279 280 280 281 281 280 278 278 278 278 279 280 281 281 281 281 281 282
253 259 267 276 282 288 291 294 295 296 298 298 297 296 294 291 288 284 280 278 276 275 273 271 271 270 271 271 272 273 274 275 276 277 277 278 278 278 279 277 276 276 276 275 276 276 277 278 279 281 282 283
255 260 268 276 283 288 291 294 296 298 298 298 298 296 295 293 289 286 281 277 276 274 273 272 271 271 272 272 273 273 274 275 275 276 276 276 276 277 277 276 275 275 274 273 273 273 273 274 276 277 279 280
257 262 269 277 283 287 290 294 297 299 299 299 299 298 296 295 292 289 285 280 278 276 274 273 272 273 273 274 275 275 276 276 276 277 277 277 277 278 277 277 276 275 273 272 271 272 273 274 275 276 277 278
259 263 270 277 282 287 292 296 298 299 300 300 300 299 298 296 294 292 289 285 282 280 278 277 276 276 277 278 278 279 279 280 280 280 279 279 280 280 280 279 278 276 274 273 273 273 274 274 275 276 277 278
262 266 271 276 282 287 292 295 297 298 299 299 299 299 298 295 294 293 291 288 286 284 283 282 281 281 281 282 282 282 283 283 283 282 282 282 283 283 282 282 279 277 276 275 276 276 277 278 279 280 281 281
265 265 268 276 282 286 290 293 294 296 296 296 297 297 296 294 294 293 292 290 289 288 287 287 286 285 285 286 286 285 285 284 284 283 283 284 284 285 283 282 279 277 277 277 278 279 280 282 283 285 286 288
262 261 267 276 281 284 288 291 293 294 294 294 295 295 294 294 294 294 294 293 292 292 291 291 290 289 288 288 288 286 285 285 284 284 284 284 285 285 283 281 279 278 277 277 278 279 281 283 285 287 290 292
256 258 268 274 277 283 288 291 293 293 294 294 293 293 294 295 295 294 295 295 295 296 295 294 293 292 291 290 289 287 286 285 284 284 284 285 285 284 283 280 280 279 278 277 277 279 280 283 285 288 291 294
253 260 267 270 275 282 288 291 292 293 294 292 291 293 295 295 295 294 294 294 295 296 296 296 294 293 292 291 290 288 287 286 285 285 285 285 285 284 282 280 279 279 278 278 277 278 279 282 285 288 292 293
254 260 265 269 276 282 287 289 291 292 291 289 291 292 293 294 293 293 291 292 294 294 294 295 293 292 292 291 290 290 288 288 287 287 287 287 286 285 283 281 279 278 278 278 278 278 278 280 283 287 290 291
256 261 265 270 276 280 282 285 288 289 287 288 289 289 291 291 290 289 289 290 290 290 291 292 291 291 292 291 291 291 290 289 289 288 288 288 288 286 284 282 280 279 279 278 278 278 278 279 281 284 286 288
256 260 265 270 273 275 277 281 284 284 286 286 286 288 288 288 288 288 287 288 288 288 289 290 290 291 290 291 291 291 291 290 290 289 289 288 288 288 286 284 282 281 279 279 278 278 277 278 279 281 282 284
254 260 266 269 268 269 272 277 280 281 283 284 285 286 285 286 287 287 287 287 287 287 288 288 289 289 289 290 290 290 290 290 290 290 289 288 288 288 287 285 283 281 280 279 278 278 278 278 278 279 280 281
253 260 265 266 265 267 269 272 275 277 279 280 282 282 283 285 285 286 287 287 287 287 287 287 288 288 288 289 288 287 287 288 288 289 288 287 287 286 286 285 283 281 280 279 278 277 277 277 277 278 278 279
254 261 265 267 267 266 266 268 270 272 274 276 277 279 281 283 283 285 287 287 287 287 287 287 287 287 287 286 284 284 284 285 286 286 286 286 286 285 284 284 282 280 279 278 277 276 276 275 275 276 277 277
257 263 267 268 266 265 264 264 266 268 271 273 274 277 278 279 281 284 285 285 285 285 285 285 285 285 284 282 281 281 281 281 282 283 284 285 284 284 283 282 281 279 277 276 274 273 273 273 273 274 274 274
260 263 265 266 264 262 261 260 263 266 268 270 272 273 274 276 278 279 280 280 280 280 280 281 281 281 280 279 278 278 279 278 279 280 281 282 283 284 283 281 279 277 276 274 272 271 270 270 270 271 271 271
256 260 263 264 263 260 258 259 261 263 265 267 268 269 271 272 274 275 276 276 275 274 274 274 275 275 275 274 274 275 276 276 276 277 278 279 281 283 282 280 278 276 274 272 270 269 268 267 267 267 267 268
252 257 262 264 263 261 260 261 261 261 263 265 266 267 268 269 271 272 272 272 271 270 270 270 270 271 270 271 271 272 273 273 273 272 274 276 279 280 280 278 276 274 272 271 269 267 266 265 265 265 265 266
253 256 261 264 266 266 266 265 264 264 264 264 264 265 265 265 266 267 268 268 268 268 269 269 269 268 268 269 269 270 271 270 269 268 270 273 275 276 278 277 275 273 271 270 268 266 265 264 264 263 263 264
252 254 258 264 269 271 272 272 272 272 272 272 270 268 266 264 263 263 264 265 266 267 269 269 268 267 266 266 267 268 268 268 268 266 267 270 270 271 275 276 275 273 270 268 267 266 264 263 262 261 261 262
247 250 257 265 271 272 273 275 278 279 280 280 277 272 268 265 264 263 262 263 265 267 269 269 268 268 266 265 265 266 267 267 266 265 263 264 265 267 271 275 275 273 271 269 267 266 264 262 260 260 260 261
251 251 256 263 269 268 268 272 278 283 284 284 280 273 268 267 266 266 265 265 265 267 268 268 268 268 267 266 266 266 266 265 263 261 260 260 262 265 267 270 272 272 272 270 268 266 263 261 260 258 258 258
260 257 257 260 262 263 266 271 277 283 285 284 280 274 269 268 268 268 267 266 265 265 265 265 266 268 268 267 266 265 265 264 262 259 257 257 259 262 263 264 268 271 272 271 268 267 264 261 260 259 257 257
257 257 257 259 260 264 268 272 276 280 283 282 279 275 271 269 268 268 267 267 266 264 263 265 267 267 267 267 265 265 264 264 262 259 256 255 256 258 258 260 265 268 269 270 269 267 265 262 260 259 258 257
252 254 257 260 265 269 272 275 277 279 282 281 277 272 269 267 266 266 268 268 267 266 265 267 268 267 267 267 266 265 264 263 262 260 256 253 253 255 255 256 261 264 265 267 268 267 266 264 260 257 255 255
255 257 259 264 269 272 275 277 279 281 281 277 271 266 263 264 266 268 270 270 269 268 266 266 266 266 266 267 267 266 265 263 262 260 256 253 251 252 253 253 256 260 262 265 266 266 266 264 261 258 255 252
257 261 263 265 268 271 274 276 278 280 280 278 273 267 265 266 268 270 270 270 270 268 266 265 265 266 267 267 267 266 264 261 259 258 256 254 251 251 251 250 252 257 261 263 265 265 265 264 261 260 258 254
257 261 263 265 268 270 272 274 275 275 275 276 273 270 268 267 266 267 267 268 268 268 267 266 266 266 267 267 266 264 261 258 257 256 255 253 250 249 249 249 251 255 258 261 264 264 263 262 262 261 260 258